�N����,����,�~����,�C��,���x,�C��,����,���ϕ���,�ő�u�ԕ���,�ő厞����,���˗�,�I�_���x,�n�����x,�ő啗���N��,DTYPE
"23/12/22","00:10",0.0,-0.4,62.5,1014.7,312.2,1.8,4.5,330.6,0.00,-6.6,6.4,"00:06:56",1
"23/12/22","00:20",0.0,-0.2,61.6,1014.9,346.1,1.1,2.5,350.9,0.00,-6.6,6.6,"00:15:36",1
"23/12/22","00:30",0.0,-0.5,62.3,1014.9,354.3,1.0,2.2,312.7,0.00,-6.8,6.7,"00:22:16",1
"23/12/22","00:40",0.0,-1.0,64.5,1014.7,2.2,1.0,2.4,334.3,0.00,-6.8,6.4,"00:38:08",1
"23/12/22","00:50",0.0,-1.0,65.7,1014.9,10.0,1.2,3.2,319.3,0.00,-6.6,6.6,"00:47:28",1
"23/12/22","01:00",0.0,-0.6,65.5,1014.7,341.0,1.8,4.4,133.0,0.00,-6.2,6.5,"00:52:32",1
"23/12/22","01:10",0.0,-0.5,64.3,1014.7,327.6,1.8,4.1,348.4,0.00,-6.4,6.2,"01:02:56",1
"23/12/22","01:20",0.0,-0.2,63.4,1014.7,293.1,2.1,5.9,235.7,0.00,-6.3,6.2,"01:16:24",1
"23/12/22","01:30",0.0,-0.2,63.3,1014.7,320.4,2.2,4.2,337.8,0.00,-6.3,6.5,"01:29:52",1
"23/12/22","01:40",0.0,-0.3,63.1,1014.9,310.5,2.2,4.9,312.8,0.00,-6.4,6.3,"01:30:48",1
"23/12/22","01:50",0.0,-0.4,63.8,1015.2,316.1,2.1,4.0,336.0,0.00,-6.4,6.3,"01:45:28",1
"23/12/22","02:00",0.0,-0.4,64.3,1015.2,324.2,2.3,4.2,322.6,0.00,-6.3,6.3,"01:58:00",1
"23/12/22","02:10",0.0,-0.4,64.1,1014.9,316.5,1.5,2.8,245.6,0.00,-6.3,6.4,"02:02:16",1
"23/12/22","02:20",0.0,-0.6,64.4,1015.2,306.8,1.2,2.0,340.9,0.00,-6.4,6.4,"02:13:12",1
"23/12/22","02:30",0.0,-1.1,66.1,1015.6,290.8,1.3,2.0,249.9,0.00,-6.6,6.2,"02:22:40",1
"23/12/22","02:40",0.0,-0.8,67.0,1015.2,273.9,1.3,2.9,245.6,0.00,-6.1,6.1,"02:37:52",1
"23/12/22","02:50",0.0,-0.7,66.7,1015.4,315.4,1.7,2.8,330.8,0.00,-6.1,6.1,"02:41:12",1
"23/12/22","03:00",0.0,-0.7,66.7,1015.2,301.7,1.6,3.5,327.9,0.00,-6.1,6.1,"02:52:40",1
"23/12/22","03:10",0.0,-0.5,66.8,1015.4,309.5,2.1,4.1,339.7,0.00,-5.9,6.0,"03:08:00",1
"23/12/22","03:20",0.0,-0.5,66.5,1015.6,303.8,1.8,4.8,354.3,0.00,-5.9,6.1,"03:18:32",1
"23/12/22","03:30",0.0,-0.7,67.2,1015.6,275.5,1.5,3.3,324.4,0.00,-6.0,6.1,"03:29:28",1
"23/12/22","03:40",0.0,-0.8,67.6,1015.6,322.2,2.0,3.7,345.8,0.00,-6.0,6.0,"03:32:24",1
"23/12/22","03:50",0.0,-0.9,68.5,1015.2,293.1,1.7,4.5,337.1,0.00,-5.9,6.0,"03:44:56",1
"23/12/22","04:00",0.0,-1.0,69.1,1014.9,315.6,1.3,3.4,341.8,0.00,-5.9,5.8,"03:56:08",1
"23/12/22","04:10",0.0,-0.9,69.5,1015.2,319.3,2.2,3.7,313.6,0.00,-5.7,5.8,"04:05:52",1
"23/12/22","04:20",0.0,-0.9,70.0,1015.2,320.1,2.3,4.7,333.5,0.00,-5.6,6.1,"04:15:44",1
"23/12/22","04:30",0.0,-1.1,70.3,1015.2,313.7,1.7,3.4,339.7,0.00,-5.8,5.9,"04:27:20",1
"23/12/22","04:40",0.0,-1.1,71.0,1015.2,304.7,2.0,4.0,325.3,0.00,-5.6,5.8,"04:35:36",1
"23/12/22","04:50",0.0,-1.2,71.4,1015.2,308.0,1.8,3.3,330.0,0.00,-5.7,5.8,"04:40:32",1
"23/12/22","05:00",0.0,-1.1,71.7,1014.9,303.1,2.1,3.9,305.4,0.00,-5.5,5.8,"04:55:28",1
"23/12/22","05:10",0.0,-1.2,72.0,1014.9,310.2,2.5,4.0,304.2,0.00,-5.6,5.7,"05:04:56",1
"23/12/22","05:20",0.0,-1.2,72.2,1014.9,301.1,2.1,3.4,326.4,0.00,-5.5,5.6,"05:11:12",1
"23/12/22","05:30",0.0,-1.2,72.4,1014.7,299.8,2.0,3.6,332.4,0.00,-5.5,5.7,"05:22:16",1
"23/12/22","05:40",0.0,-1.2,72.8,1014.9,307.5,2.5,4.1,320.7,0.00,-5.4,5.6,"05:37:12",1
"23/12/22","05:50",0.0,-1.2,73.0,1015.4,290.1,2.5,3.5,289.2,0.00,-5.4,5.8,"05:44:00",1
"23/12/22","06:00",0.0,-1.3,73.2,1015.4,279.0,1.8,2.6,274.0,0.00,-5.4,5.6,"05:58:32",1
"23/12/22","06:10",0.0,-1.3,73.3,1015.2,287.3,1.7,2.6,344.6,0.00,-5.4,5.4,"06:00:56",1
"23/12/22","06:20",0.0,-1.2,73.5,1015.4,301.4,2.2,4.4,329.3,0.00,-5.3,5.6,"06:12:16",1
"23/12/22","06:30",0.0,-1.3,73.8,1015.2,309.7,2.2,4.2,347.1,0.00,-5.3,5.5,"06:23:12",1
"23/12/22","06:40",0.0,-1.3,74.1,1015.6,284.1,2.0,3.4,288.8,0.00,-5.3,5.8,"06:33:20",1
"23/12/22","06:50",0.0,-1.3,74.1,1015.6,282.4,1.8,3.5,276.5,0.00,-5.3,5.8,"06:43:44",1
"23/12/22","07:00",0.0,-1.5,74.3,1016.1,298.6,1.3,2.1,318.4,0.00,-5.4,5.5,"06:58:40",1
"23/12/22","07:10",0.0,-1.8,74.8,1016.1,294.2,0.6,1.8,268.9,0.00,-5.6,5.7,"07:08:48",1
"23/12/22","07:20",0.0,-1.6,75.4,1015.9,351.7,1.0,2.1,327.5,0.00,-5.3,5.7,"07:17:12",1
"23/12/22","07:30",0.0,-1.8,75.8,1015.9,324.8,0.8,2.4,322.3,0.00,-5.5,5.6,"07:26:48",1
"23/12/22","07:40",0.0,-1.8,76.5,1016.1,326.1,0.8,1.6,261.5,0.00,-5.3,5.7,"07:35:28",1
"23/12/22","07:50",0.0,-1.5,76.8,1016.6,326.3,1.1,2.6,327.9,0.01,-5.0,5.4,"07:48:56",1
"23/12/22","08:00",0.0,-1.1,77.2,1016.6,311.1,1.2,2.1,280.6,0.04,-4.5,5.5,"07:53:52",1
"23/12/22","08:10",0.0,-0.6,76.8,1016.6,291.5,2.0,4.9,340.6,0.06,-4.1,5.7,"08:06:12",1
"23/12/22","08:20",0.0,-0.1,75.7,1017.1,287.9,2.5,5.1,327.2,0.09,-3.8,5.5,"08:14:14",1
"23/12/22","08:30",0.0,0.1,74.3,1017.1,307.5,3.5,5.4,328.1,0.12,-3.9,5.6,"08:23:22",1
"23/12/22","08:40",0.0,0.4,72.8,1017.3,301.4,3.4,5.4,323.3,0.15,-3.9,5.6,"08:35:06",1
"23/12/22","08:50",0.0,0.6,71.0,1017.1,304.0,3.9,6.6,313.3,0.18,-4.0,5.4,"08:43:12",1
"23/12/22","09:00",0.0,0.9,69.3,1017.5,303.1,4.2,8.1,335.6,0.20,-4.0,5.4,"08:54:16",1
"23/12/22","09:10",0.0,1.3,67.5,1017.5,295.8,3.7,6.6,321.5,0.23,-4.0,5.4,"09:03:36",1
"23/12/22","09:20",0.0,1.4,66.1,1017.8,308.7,4.7,7.4,302.4,0.26,-4.2,5.5,"09:13:18",1
"23/12/22","09:30",0.0,1.9,63.5,1018.5,291.6,4.1,7.1,306.3,0.28,-4.2,5.4,"09:24:48",1
"23/12/22","09:40",0.0,2.1,61.0,1018.0,278.2,4.4,7.1,337.5,0.31,-4.6,5.7,"09:32:40",1
"23/12/22","09:50",0.0,2.4,59.1,1018.2,293.2,4.5,6.8,324.8,0.33,-4.7,5.2,"09:44:16",1
"23/12/22","10:00",0.0,3.0,55.6,1018.2,279.8,4.4,8.0,307.0,0.35,-5.0,5.6,"09:59:36",1
"23/12/22","10:10",0.0,3.1,53.4,1018.2,277.8,4.7,7.8,279.4,0.37,-5.4,5.5,"10:06:26",1
"23/12/22","10:20",0.0,3.4,52.1,1018.0,288.1,4.7,8.9,251.5,0.39,-5.5,5.6,"10:16:42",1
"23/12/22","10:30",0.0,3.6,51.6,1018.5,283.4,4.9,8.6,320.9,0.40,-5.4,5.7,"10:25:36",1
"23/12/22","10:40",0.0,3.7,50.9,1018.2,279.2,4.6,7.3,318.6,0.42,-5.5,5.8,"10:30:56",1
"23/12/22","10:50",0.0,4.1,50.6,1018.2,282.6,4.0,6.2,329.6,0.43,-5.2,5.7,"10:42:26",1
"23/12/22","11:00",0.0,4.5,50.1,1018.2,276.0,3.7,6.5,225.3,0.44,-4.9,5.8,"10:59:52",1
"23/12/22","11:10",0.0,4.3,49.3,1018.0,278.7,4.2,7.3,255.8,0.45,-5.3,5.7,"11:01:52",1
"23/12/22","11:20",0.0,4.5,48.7,1018.0,268.5,4.5,8.3,257.7,0.46,-5.3,6.0,"11:17:44",1
"23/12/22","11:30",0.0,4.5,47.9,1017.8,274.6,4.5,7.0,321.7,0.47,-5.5,6.1,"11:26:40",1
"23/12/22","11:40",0.0,4.9,47.5,1017.5,279.3,4.1,8.0,304.1,0.47,-5.3,6.0,"11:33:56",1
"23/12/22","11:50",0.0,5.1,45.2,1017.5,264.2,4.0,8.2,248.2,0.48,-5.8,6.0,"11:48:26",1
"23/12/22","12:00",0.0,5.2,44.3,1017.5,271.4,4.4,8.5,255.0,0.48,-5.9,6.2,"11:58:04",1
"23/12/22","12:10",0.0,5.4,42.4,1017.8,257.6,4.7,8.6,237.8,0.49,-6.3,6.3,"12:06:14",1
"23/12/22","12:20",0.0,5.9,40.5,1017.8,261.0,4.1,10.0,243.2,0.49,-6.5,6.3,"12:13:54",1
"23/12/22","12:30",0.0,5.3,37.9,1017.3,284.5,4.6,8.6,298.6,0.34,-7.9,6.4,"12:27:44",1
"23/12/22","12:40",0.0,4.3,38.8,1017.5,298.9,5.2,8.1,304.4,0.09,-8.5,6.6,"12:37:18",1
"23/12/22","12:50",0.0,4.9,38.3,1017.5,294.2,5.1,8.6,300.3,0.32,-8.1,6.5,"12:45:06",1
"23/12/22","13:00",0.0,5.0,37.4,1017.5,291.1,5.7,9.7,310.6,0.26,-8.3,6.5,"12:53:20",1
"23/12/22","13:10",0.0,4.8,36.2,1017.3,295.2,5.4,8.1,261.0,0.22,-8.9,6.7,"13:06:08",1
"23/12/22","13:20",0.0,5.0,35.7,1017.5,301.9,5.6,11.1,318.2,0.30,-8.9,6.7,"13:16:40",1
"23/12/22","13:30",0.0,5.7,34.5,1018.0,282.6,4.7,9.3,291.5,0.44,-8.7,6.7,"13:21:44",1
"23/12/22","13:40",0.0,5.9,35.2,1017.5,317.4,5.5,13.1,334.0,0.45,-8.3,6.8,"13:31:12",1
"23/12/22","13:50",0.0,6.1,36.8,1017.8,291.5,3.5,8.0,315.3,0.42,-7.5,6.9,"13:40:16",1
"23/12/22","14:00",0.0,5.7,38.7,1017.8,282.0,4.1,8.2,334.4,0.38,-7.2,6.9,"13:51:12",1
"23/12/22","14:10",0.0,5.6,38.1,1017.8,290.0,4.9,15.1,336.9,0.38,-7.5,6.9,"14:05:12",1
"23/12/22","14:20",0.0,5.0,37.1,1017.8,300.4,5.5,10.9,306.4,0.23,-8.4,7.0,"14:19:06",1
"23/12/22","14:30",0.0,4.9,37.3,1018.0,307.8,6.5,11.8,321.0,0.26,-8.4,7.0,"14:23:38",1
"23/12/22","14:40",0.0,5.3,37.8,1017.8,299.8,5.2,9.4,305.8,0.27,-7.9,7.1,"14:33:20",1
"23/12/22","14:50",0.0,4.9,37.6,1018.0,282.2,4.7,8.3,263.6,0.17,-8.3,7.2,"14:43:52",1
"23/12/22","15:00",0.0,5.1,38.5,1017.8,285.1,5.0,8.8,325.8,0.23,-7.8,7.2,"14:55:14",1
"23/12/22","15:10",0.0,4.9,39.4,1018.0,287.2,4.6,10.2,322.1,0.20,-7.7,7.0,"15:08:56",1
"23/12/22","15:20",0.0,4.9,40.6,1017.5,275.4,4.0,6.7,253.2,0.18,-7.3,7.2,"15:16:44",1
"23/12/22","15:30",0.0,4.8,41.7,1017.8,288.8,4.0,6.5,324.3,0.14,-7.1,7.4,"15:24:32",1
"23/12/22","15:40",0.0,4.9,42.8,1018.2,284.9,3.7,7.8,299.2,0.13,-6.6,7.2,"15:33:12",1
"23/12/22","15:50",0.0,4.5,42.8,1018.5,284.8,4.4,7.9,312.1,0.09,-7.0,7.4,"15:47:30",1
"23/12/22","16:00",0.0,4.5,43.9,1018.5,288.2,4.5,8.1,323.2,0.09,-6.7,7.1,"15:58:50",1
"23/12/22","16:10",0.0,4.3,44.5,1018.5,276.6,4.4,7.5,329.0,0.07,-6.7,7.2,"16:07:28",1
"23/12/22","16:20",0.0,3.9,45.2,1018.5,279.7,4.2,7.8,284.4,0.02,-6.8,7.4,"16:13:18",1
"23/12/22","16:30",0.0,3.7,45.8,1018.5,277.6,4.4,7.8,244.5,0.01,-6.9,7.1,"16:20:16",1
"23/12/22","16:40",0.0,3.6,46.8,1018.0,266.9,4.0,7.8,241.6,0.00,-6.7,7.2,"16:34:12",1
"23/12/22","16:50",0.0,3.4,47.9,1018.2,269.0,3.6,8.8,245.6,0.00,-6.6,7.3,"16:49:18",1
"23/12/22","17:00",0.0,3.3,48.9,1018.5,266.0,3.1,5.8,247.0,0.00,-6.4,7.3,"16:57:04",1
"23/12/22","17:10",0.0,3.1,49.8,1018.5,280.0,2.6,4.5,248.5,0.00,-6.3,7.1,"17:05:18",1
"23/12/22","17:20",0.0,3.1,50.5,1018.5,268.6,2.5,5.2,244.2,0.00,-6.1,7.1,"17:17:02",1
"23/12/22","17:30",0.0,3.0,51.0,1018.7,274.9,2.5,4.2,236.1,0.00,-6.1,6.9,"17:24:50",1
"23/12/22","17:40",0.0,2.9,51.0,1018.7,282.0,2.3,4.2,258.9,0.00,-6.2,6.9,"17:33:10",1
"23/12/22","17:50",0.0,2.7,50.8,1019.2,281.2,2.2,3.7,257.8,0.00,-6.4,7.1,"17:45:34",1
"23/12/22","18:00",0.0,2.6,51.5,1019.0,294.5,2.1,3.5,320.0,0.00,-6.3,7.0,"17:58:00",1
"23/12/22","18:10",0.0,2.6,51.5,1019.2,281.9,2.3,4.7,257.9,0.00,-6.3,6.9,"18:07:16",1
"23/12/22","18:20",0.0,2.4,52.2,1019.4,297.0,2.0,3.6,250.4,0.00,-6.4,6.9,"18:15:36",1
"23/12/22","18:30",0.0,2.4,52.7,1020.1,296.7,2.2,3.7,309.1,0.00,-6.2,6.9,"18:29:58",1
"23/12/22","18:40",0.0,2.5,51.3,1019.7,300.8,2.5,4.2,317.7,0.00,-6.5,7.0,"18:36:02",1
"23/12/22","18:50",0.0,2.4,50.5,1019.9,301.4,2.6,3.4,310.5,0.00,-6.8,6.7,"18:41:08",1
"23/12/22","19:00",0.0,2.5,49.8,1020.1,290.6,2.3,4.0,299.4,0.00,-6.9,6.8,"18:56:06",1
"23/12/22","19:10",0.0,2.4,49.1,1020.1,291.7,2.5,3.5,322.9,0.00,-7.2,6.7,"19:03:42",1
"23/12/22","19:20",0.0,2.2,49.5,1020.1,302.2,2.1,3.5,320.0,0.00,-7.2,6.6,"19:16:02",1
"23/12/22","19:30",0.0,2.0,50.3,1020.1,294.2,2.0,3.4,323.9,0.00,-7.2,6.8,"19:29:06",1
"23/12/22","19:40",0.0,1.8,50.9,1020.4,312.1,1.8,3.5,321.8,0.00,-7.2,6.9,"19:30:10",1
"23/12/22","19:50",0.0,1.8,51.5,1020.4,288.8,2.6,6.3,317.8,0.00,-7.1,6.6,"19:47:14",1
"23/12/22","20:00",0.0,1.7,52.2,1020.6,286.1,2.2,3.6,280.9,0.00,-7.0,6.7,"19:53:20",1
"23/12/22","20:10",0.0,1.5,53.7,1020.4,313.3,2.3,5.2,326.2,0.00,-6.8,6.7,"20:05:44",1
"23/12/22","20:20",0.0,1.2,54.6,1020.6,309.3,1.8,4.4,340.0,0.00,-6.9,6.7,"20:11:34",1
"23/12/22","20:30",0.0,0.9,56.3,1020.6,322.9,1.8,3.4,343.1,0.00,-6.8,6.4,"20:26:40",1
"23/12/22","20:40",0.0,0.9,57.4,1020.6,316.2,2.1,4.1,347.2,0.00,-6.5,6.5,"20:30:16",1
"23/12/22","20:50",0.0,0.9,58.3,1020.8,300.8,2.1,3.4,254.5,0.00,-6.3,6.6,"20:42:00",1
"23/12/22","21:00",0.0,0.7,59.3,1020.8,320.3,1.8,2.7,322.5,0.00,-6.3,6.5,"20:50:40",1
"23/12/22","21:10",0.0,0.6,60.5,1020.6,300.2,1.8,2.9,255.7,0.00,-6.1,6.5,"21:08:08",1
"23/12/22","21:20",0.0,0.7,61.1,1020.6,290.1,2.1,3.7,288.4,0.00,-5.9,6.4,"21:14:24",1
"23/12/22","21:30",0.0,0.7,61.3,1020.8,294.5,1.7,2.6,338.5,0.00,-5.9,6.5,"21:24:56",1
"23/12/22","21:40",0.0,0.6,62.1,1020.8,306.1,2.0,4.0,345.6,0.00,-5.8,6.2,"21:39:12",1
"23/12/22","21:50",0.0,0.6,62.2,1021.1,298.9,2.0,4.1,245.1,0.00,-5.8,6.4,"21:43:20",1
"23/12/22","22:00",0.0,0.5,62.6,1020.8,294.0,2.3,4.9,332.9,0.00,-5.8,6.0,"21:53:12",1
"23/12/22","22:10",0.0,0.6,62.8,1021.1,274.1,2.5,4.5,211.9,0.00,-5.6,6.4,"22:04:32",1
"23/12/22","22:20",0.0,0.5,62.8,1021.3,277.8,2.1,3.7,247.0,0.00,-5.7,6.2,"22:12:32",1
"23/12/22","22:30",0.0,0.4,63.3,1021.5,300.8,1.5,4.2,253.6,0.00,-5.7,6.4,"22:26:08",1
"23/12/22","22:40",0.0,0.2,64.1,1021.3,285.8,1.6,2.6,247.9,0.00,-5.7,6.2,"22:32:32",1
"23/12/22","22:50",0.0,0.1,65.1,1021.3,279.0,1.7,3.6,242.2,0.00,-5.6,6.3,"22:43:44",1
"23/12/22","23:00",0.0,0.2,65.6,1021.1,269.4,1.6,4.5,244.6,0.00,-5.4,6.0,"22:55:12",1
"23/12/22","23:10",0.0,0.2,66.0,1021.3,255.6,1.6,4.8,236.4,0.00,-5.4,6.3,"23:08:08",1
"23/12/22","23:20",0.0,0.1,66.2,1021.5,280.5,1.5,2.1,275.5,0.00,-5.4,6.0,"23:11:36",1
"23/12/22","23:30",0.0,-0.2,66.6,1021.5,285.6,0.7,1.6,274.7,0.00,-5.6,6.1,"23:20:48",1
"23/12/22","23:40",0.0,-0.2,67.0,1021.8,308.4,0.8,1.4,12.7,0.00,-5.5,6.0,"23:34:56",1
"23/12/22","23:50",0.0,-0.3,67.8,1021.5,304.6,1.2,2.0,253.6,0.00,-5.5,5.9,"23:45:36",1
"23/12/22","24:00",0.0,-0.5,68.6,1021.3,281.1,1.0,1.8,247.2,0.00,-5.5,5.9,"23:50:56",1
